Date,TemperatureHighF,TemperatureAvgF,TemperatureLowF,DewpointHighF,DewpointAvgF,DewpointLowF,HumidityHigh,HumidityAvg,HumidityLow,PressureMaxIn,PressureMinIn,WindSpeedMaxMPH,WindSpeedAvgMPH,GustSpeedMaxMPH,PrecipitationSumIn
2013-2-1,37,26,15,9,0,-8,49,32,18,30.07,29.55,22,9,27,0.07
2013-2-2,30,21,8,7,-5,-11,51,32,20,30.22,30.02,10,5,19,0.00
2013-2-3,33,24,12,14,7,1,65,49,34,30.04,29.72,6,2,8,0.00
2013-2-4,34,22,15,10,-3,-14,60,35,18,29.90,29.71,20,7,29,0.00
2013-2-5,33,19,5,11,-4,-11,56,37,21,30.03,29.89,7,2,10,0.00
2013-2-6,46,27,17,28,8,-15,72,46,21,30.31,29.92,13,5,25,0.00
2013-2-7,32,19,8,-4,-13,-21,30,23,18,30.54,30.30,12,4,14,0.00
2013-2-8,20,17,14,9,3,-12,70,56,23,30.48,29.80,11,5,21,0.00
2013-2-9,19,15,10,11,6,-2,71,67,55,30.22,29.74,19,13,27,0.00
2013-2-10,46,22,8,9,-3,-10,57,34,18,30.41,30.21,15,6,21,0.00
2013-2-11,28,19,8,21,9,-8,78,64,47,30.33,29.63,4,1,6,0.00
2013-2-12,50,37,27,28,24,21,83,60,39,29.86,29.60,18,7,26,0.06
2013-2-13,52,34,22,28,16,10,64,50,28,29.87,29.74,9,4,13,0.00
2013-2-14,48,26,21,23,13,10,65,57,25,29.98,29.73,12,2,12,0.00
2013-2-15,56,34,17,29,17,7,73,52,24,29.99,29.89,14,3,17,0.00
2013-2-16,49,34,24,31,17,-2,79,52,29,29.98,29.75,12,5,17,0.01
2013-2-17,24,18,12,4,-6,-14,61,34,21,29.78,29.43,26,17,46,0.18
2013-2-18,34,20,10,-3,-10,-19,39,26,18,30.12,29.68,23,13,33,0.04
2013-2-19,49,32,15,33,9,-18,83,43,18,30.16,29.58,8,3,13,0.11
2013-2-20,41,31,23,29,14,5,82,50,28,29.75,29.53,15,7,21,0.01
2013-2-21,34,24,19,9,4,-5,59,42,23,30.23,29.74,21,11,32,0.00
2013-2-22,50,32,15,24,12,5,70,46,21,30.41,30.22,12,4,17,0.00
2013-2-23,35,31,26,27,22,14,82,69,55,30.33,29.96,7,2,12,0.02
2013-2-24,36,32,30,29,27,25,84,82,75,29.96,29.77,6,0,11,0.00
2013-2-25,57,35,26,41,26,21,84,72,40,30.24,29.91,6,2,9,0.24
2013-2-26,49,34,29,35,26,23,85,73,51,30.35,30.19,8,2,9,0.00
2013-2-27,32,32,31,25,25,-19,78,76,73,30.20,30.13,10,3,99,0.00
2013-2-28,50,36,30,37,29,26,84,76,55,29.65,29.55,6,2,8,0.32